DW8501 Madrid ES current weather conditions

sailwx.info

Wind from 271 at 13 knots gusting 19

Air temperature 31.7° C
Dewpoint 5.9° C

Last reported at 2016-Jul-01 12:50 UTC.
Time now 2016-Jul-01 13:37 UTC

Location: N 40°27' W 003°35'.
View on Google Maps.

See reports from other nearby stations

  
Tides and Currents Weather Stations Pressure Air Temp Water Temp Dewpoint Dewpoint Depression Visibility Wind Speed Wind Dir Waves Ship Positions
date/time (UTC)wind fromknots sea level pressurealtimeterstation pressurevisibilityair tempwater tempwave heightnotes
2016-Jul-01 12:50 271 13 gusting 19 31.7
2016-Jul-01 12:45 285 12 gusting 19 31.7
2016-Jul-01 12:40 271 10 gusting 18 31.7
2016-Jul-01 12:35 278 6 gusting 18 31.7
2016-Jul-01 12:30 305 3 gusting 18 31.1
2016-Jul-01 12:25 295 6 gusting 18 31.1
2016-Jul-01 12:20 269 9 gusting 19 31.1
2016-Jul-01 12:15 286 9 gusting 19 31.1
2016-Jul-01 12:10 297 6 gusting 19 31.1
2016-Jul-01 12:05 260 13 gusting 19 31.7
2016-Jul-01 12:00 242 3 gusting 15 31.1
2016-Jul-01 11:55 254 6 gusting 19 30.6
2016-Jul-01 11:50 245 6 gusting 19 30.6
2016-Jul-01 11:45 254 13 gusting 16 30.6
2016-Jul-01 11:40 249 3 gusting 12 31.1
2016-Jul-01 11:35 217 2 gusting 13 31.1
2016-Jul-01 11:30 275 9 gusting 14 30.6
2016-Jul-01 11:25 292 6 gusting 14 30.6
2016-Jul-01 11:20 271 9 gusting 18 30.6
2016-Jul-01 11:15 252 9 gusting 18 30.6
2016-Jul-01 11:10 191 3 gusting 16 30.6
2016-Jul-01 11:05 219 7 gusting 16 30.6
2016-Jul-01 11:00 258 5 gusting 16 30.0
2016-Jul-01 10:55 277 8 gusting 16 30.0
2016-Jul-01 10:50 270 6 gusting 14 30.0
2016-Jul-01 10:45 252 7 gusting 10 30.6
2016-Jul-01 10:40 244 6 gusting 10 30.6
2016-Jul-01 10:35 242 5 gusting 10 30.6
2016-Jul-01 10:30 280 7 gusting 10 30.6
2016-Jul-01 10:25 282 4 gusting 9 29.4
2016-Jul-01 10:20 235 4 gusting 11 29.4
2016-Jul-01 10:15 204 6 gusting 11 30.6
2016-Jul-01 10:10 201 6 gusting 10 30.6
2016-Jul-01 10:05 192 2 gusting 6 31.1
2016-Jul-01 10:00 169 1 gusting 6 30.6
2016-Jul-01 09:55 157 2 gusting 6 30.6
2016-Jul-01 09:50 137 3 gusting 6 30.0
2016-Jul-01 09:45 135 1 gusting 6 29.4
2016-Jul-01 09:40 147 1 gusting 4 30.0
2016-Jul-01 09:35 150 1 gusting 5 29.4
2016-Jul-01 09:30 172 2 gusting 6 29.4
2016-Jul-01 09:25 247 2 gusting 6 29.4
2016-Jul-01 09:20 087 6 gusting 6 28.9
2016-Jul-01 09:15 088 1 gusting 5 28.9
2016-Jul-01 09:10 114 1 gusting 5 28.3
2016-Jul-01 09:05 091 1 gusting 6 28.3
2016-Jul-01 09:00 093 3 gusting 6 28.3
2016-Jul-01 08:55 112 3 gusting 6 28.3
2016-Jul-01 08:50 082 1 gusting 6 28.3
2016-Jul-01 08:45 090 1 gusting 6 28.3
2016-Jul-01 08:40 097 1 gusting 3 28.9
2016-Jul-01 08:35 27.8
2016-Jul-01 08:30 076 0 gusting 6 26.7
2016-Jul-01 08:25 072 1 gusting 6 26.1
2016-Jul-01 08:20 073 3 gusting 6 26.7
2016-Jul-01 08:15 080 5 gusting 6 26.7
2016-Jul-01 08:10 120 3 gusting 6 27.2
2016-Jul-01 08:05 112 1 gusting 6 26.1
2016-Jul-01 08:00 106 3 gusting 6 26.7
2016-Jul-01 07:55 112 3 gusting 6 26.7
2016-Jul-01 07:50 097 3 gusting 6 26.1
2016-Jul-01 07:45 099 3 gusting 6 26.1
2016-Jul-01 07:40 106 4 gusting 6 26.7
2016-Jul-01 07:35 096 1 gusting 5 26.1
2016-Jul-01 07:30 108 1 gusting 3 26.1
2016-Jul-01 07:25 120 1 gusting 3 25.6
2016-Jul-01 07:20 124 1 gusting 4 25.6
2016-Jul-01 07:15 096 1 gusting 6 24.4
2016-Jul-01 07:10 095 3 gusting 7 23.9
2016-Jul-01 07:05 092 4 gusting 10 23.9
2016-Jul-01 07:00 090 5 gusting 10 23.9
2016-Jul-01 06:55 089 6 gusting 7 24.4
2016-Jul-01 06:50 086 3 gusting 6 24.4
2016-Jul-01 06:45 089 5 gusting 6 23.9
2016-Jul-01 06:40 088 3 gusting 6 23.9
2016-Jul-01 06:35 104 3 gusting 6 23.9
2016-Jul-01 06:30 110 4 gusting 6 23.9
2016-Jul-01 06:25 101 2 gusting 6 23.3
2016-Jul-01 06:20 092 5 gusting 6 23.3
2016-Jul-01 06:15 090 3 gusting 6 23.3
2016-Jul-01 06:10 089 4 gusting 6 23.3
2016-Jul-01 06:05 087 4 gusting 6 23.9
2016-Jul-01 06:00 094 2 gusting 5 23.9
2016-Jul-01 05:55 091 3 gusting 5 24.4
2016-Jul-01 05:50 091 1 gusting 3 24.4
2016-Jul-01 05:45 095 0 gusting 3 23.9
2016-Jul-01 05:40 097 1 gusting 2 24.4
2016-Jul-01 05:35 098 0 gusting 2 23.9
2016-Jul-01 05:30 114 1 gusting 2 23.3
2016-Jul-01 05:25 105 0 gusting 2 23.3
2016-Jul-01 05:20 090 1 gusting 1 22.8
2016-Jul-01 05:15 096 0 gusting 1 22.2
2016-Jul-01 05:10 166 0 gusting 1 21.7
2016-Jul-01 05:05 21.1
2016-Jul-01 05:00 210 1 gusting 1 21.1
2016-Jul-01 04:55 21.1
2016-Jul-01 04:50 192 1 gusting 2 21.1
2016-Jul-01 04:45 197 1 gusting 2 21.1
2016-Jul-01 04:40 149 1 gusting 1 21.1
2016-Jul-01 04:35 21.1
2016-Jul-01 04:30 132 0 gusting 1 21.1
2016-Jul-01 04:25 144 0 gusting 1 21.1
2016-Jul-01 04:20 133 0 gusting 1 21.7
2016-Jul-01 04:15 135 0 gusting 1 21.7
2016-Jul-01 04:10 21.7
2016-Jul-01 04:05 21.7
2016-Jul-01 04:00 147 1 gusting 2 21.7
2016-Jul-01 03:55 175 0 gusting 2 21.7
2016-Jul-01 03:50 191 1 gusting 2 21.7
2016-Jul-01 03:45 161 0 gusting 1 21.7
2016-Jul-01 03:40 22.2
2016-Jul-01 03:35 131 0 gusting 2 22.2
2016-Jul-01 03:30 128 0 gusting 3 22.2
2016-Jul-01 03:25 095 1 gusting 3 22.8
2016-Jul-01 03:20 083 1 gusting 3 22.8
2016-Jul-01 03:15 129 1 gusting 3 22.8
2016-Jul-01 03:10 22.2
2016-Jul-01 03:05 251 2 gusting 3 22.2
2016-Jul-01 03:00 246 1 gusting 3 22.8
2016-Jul-01 02:55 119 0 gusting 3 23.3
2016-Jul-01 02:50 124 0 gusting 3 23.3
2016-Jul-01 02:45 137 1 gusting 3 23.3
2016-Jul-01 02:40 137 2 gusting 3 23.3
2016-Jul-01 02:35 127 1 gusting 3 23.9
2016-Jul-01 02:30 108 1 gusting 3 23.9
2016-Jul-01 02:25 096 1 gusting 5 23.9
2016-Jul-01 02:20 092 2 gusting 6 24.4
2016-Jul-01 02:15 082 3 gusting 6 24.4
2016-Jul-01 02:10 058 3 gusting 5 24.4
2016-Jul-01 02:05 068 2 gusting 6 25.0
2016-Jul-01 02:00 086 2 gusting 6 25.0
2016-Jul-01 01:55 090 3 gusting 6 25.0
2016-Jul-01 01:50 081 2 gusting 6 25.0
2016-Jul-01 01:45 058 3 gusting 6 25.0
2016-Jul-01 01:40 061 2 gusting 3 25.0
2016-Jul-01 01:35 25.0
2016-Jul-01 01:30 25.0
2016-Jul-01 01:25 038 0 gusting 5 25.6
2016-Jul-01 01:20 046 3 gusting 5 25.6
2016-Jul-01 01:15 054 2 gusting 3 25.6
2016-Jul-01 01:10 074 1 gusting 7 25.6
2016-Jul-01 01:05 088 0 gusting 7 25.6
2016-Jul-01 01:00 080 6 gusting 7 25.6
2016-Jul-01 00:55 009 1 gusting 1 25.6
2016-Jul-01 00:50 351 1 gusting 2 25.6
2016-Jul-01 00:45 007 1 gusting 2 26.1
2016-Jul-01 00:40 353 1 gusting 3 26.1
2016-Jul-01 00:35 337 1 gusting 3 26.1
2016-Jul-01 00:30 315 1 gusting 3 26.7
2016-Jul-01 00:25 301 1 gusting 3 26.7
2016-Jul-01 00:20 283 1 gusting 3 26.7
2016-Jul-01 00:15 269 1 gusting 4 26.7
2016-Jul-01 00:10 269 1 gusting 4 26.7
2016-Jul-01 00:05 267 3 gusting 5 26.7
2016-Jul-01 00:00 265 3 gusting 5 26.7
2016-Jun-30 23:55 279 0 gusting 5 26.7
2016-Jun-30 23:50 279 3 gusting 5 26.7
2016-Jun-30 23:45 279 2 gusting 3 26.7
2016-Jun-30 23:40 296 2 gusting 3 27.2
2016-Jun-30 23:35 294 1 gusting 3 27.2
2016-Jun-30 23:30 284 1 gusting 3 27.2
2016-Jun-30 23:25 296 1 gusting 3 27.2
2016-Jun-30 23:20 322 1 gusting 3 27.2
2016-Jun-30 23:15 311 1 gusting 3 27.2
2016-Jun-30 23:10 291 1 gusting 4 27.8
2016-Jun-30 23:05 292 1 gusting 4 27.8
2016-Jun-30 23:00 281 2 gusting 6 27.8
2016-Jun-30 22:55 277 3 gusting 6 27.8
2016-Jun-30 22:50 283 4 gusting 6 27.8
2016-Jun-30 22:45 297 3 gusting 8 27.8
2016-Jun-30 22:40 299 4 gusting 8 27.8
2016-Jun-30 22:35 289 4 gusting 6 28.3
2016-Jun-30 22:30 291 2 gusting 9 28.3
2016-Jun-30 22:25 282 4 gusting 9 28.3
2016-Jun-30 22:20 288 6 gusting 9 28.3
2016-Jun-30 22:15 303 5 gusting 8 28.3
2016-Jun-30 22:10 307 3 gusting 7 28.3
2016-Jun-30 22:05 304 3 gusting 9 28.3
2016-Jun-30 22:00 291 3 gusting 11 28.3
2016-Jun-30 21:55 273 6 gusting 11 28.9
2016-Jun-30 21:50 272 6 gusting 12 28.9
2016-Jun-30 21:45 286 4 gusting 14 28.9
2016-Jun-30 21:40 280 4 gusting 14 28.9
2016-Jun-30 21:35 289 6 gusting 13 28.9
2016-Jun-30 21:30 288 7 gusting 14 28.9
2016-Jun-30 21:25 270 7 gusting 19 29.4
2016-Jun-30 21:20 273 9 gusting 19 29.4
2016-Jun-30 21:15 290 8 gusting 17 29.4
2016-Jun-30 21:10 296 9 gusting 19 29.4
2016-Jun-30 21:05 280 12 gusting 19 29.4
2016-Jun-30 21:00 264 13 gusting 19 29.4
2016-Jun-30 20:55 292 6 gusting 18 29.4
2016-Jun-30 20:50 301 9 gusting 18 30.0
2016-Jun-30 20:45 307 14 gusting 18 30.0
2016-Jun-30 20:40 297 13 gusting 18 30.0
2016-Jun-30 20:35 264 13 gusting 17 30.0
2016-Jun-30 20:30 267 11 gusting 17 30.0
2016-Jun-30 20:25 267 11 gusting 17 30.0
2016-Jun-30 20:20 266 13 gusting 17 30.6
2016-Jun-30 20:15 275 10 gusting 15 30.6
2016-Jun-30 20:10 287 6 gusting 15 30.6
2016-Jun-30 20:05 272 13 gusting 15 30.6
2016-Jun-30 20:00 271 12 gusting 16 30.6
2016-Jun-30 19:55 271 10 gusting 16 30.6
2016-Jun-30 19:50 266 11 gusting 16 30.6
2016-Jun-30 19:45 281 5 gusting 15 31.1
2016-Jun-30 19:40 279 10 gusting 15 31.1
2016-Jun-30 19:35 283 9 gusting 14 31.1
2016-Jun-30 19:30 261 5 gusting 15 31.7
2016-Jun-30 19:25 242 9 gusting 15 31.7
2016-Jun-30 19:20 233 6 gusting 13 31.7
2016-Jun-30 19:15 238 7 gusting 14 31.7
2016-Jun-30 19:10 270 6 gusting 14 31.7
2016-Jun-30 19:05 271 6 gusting 14 31.7
2016-Jun-30 19:00 248 9 gusting 14 31.7
2016-Jun-30 18:55 235 9 gusting 13 32.2
2016-Jun-30 18:50 233 6 gusting 13 32.2
2016-Jun-30 18:45 240 6 gusting 14 32.2
2016-Jun-30 18:40 234 8 gusting 15 32.2
2016-Jun-30 18:35 235 10 gusting 15 32.2
2016-Jun-30 18:30 259 9 gusting 17 32.2
2016-Jun-30 18:25 253 13 gusting 17 32.2
2016-Jun-30 18:20 228 8 gusting 13 32.8
2016-Jun-30 18:15 224 9 gusting 13 32.8
2016-Jun-30 18:10 219 6 gusting 15 32.8
2016-Jun-30 18:05 221 6 gusting 16 32.2
2016-Jun-30 18:00 222 13 gusting 16 32.2
2016-Jun-30 17:55 229 9 gusting 15 32.8
2016-Jun-30 17:50 250 7 gusting 16 32.2
2016-Jun-30 17:45 270 7 gusting 16 32.8
2016-Jun-30 17:40 255 6 gusting 14 32.8
2016-Jun-30 17:35 250 8 gusting 14 32.8
2016-Jun-30 17:30 243 9 gusting 13 33.3
2016-Jun-30 17:25 232 6 gusting 14 32.8
2016-Jun-30 17:20 238 6 gusting 14 32.8
2016-Jun-30 17:15 232 12 gusting 14 32.8
2016-Jun-30 17:10 226 9 gusting 18 32.8
2016-Jun-30 17:05 240 9 gusting 18 32.8
2016-Jun-30 17:00 266 9 gusting 16 33.3
2016-Jun-30 16:55 260 5 gusting 15 33.3
2016-Jun-30 16:50 279 9 gusting 15 33.3
2016-Jun-30 16:45 272 4 gusting 15 32.8
2016-Jun-30 16:40 249 12 gusting 19 33.3
2016-Jun-30 16:35 251 10 gusting 19 32.8
2016-Jun-30 16:30 252 7 gusting 18 32.8
2016-Jun-30 16:25 254 10 gusting 20 32.8
2016-Jun-30 16:20 237 10 gusting 20 33.3
2016-Jun-30 16:15 229 13 gusting 18 33.3
2016-Jun-30 16:10 253 10 gusting 18 32.8
2016-Jun-30 16:05 267 7 gusting 17 32.8
2016-Jun-30 16:00 251 11 gusting 24 32.2
2016-Jun-30 15:55 269 13 gusting 24 32.8
2016-Jun-30 15:50 297 13 gusting 19 33.3
2016-Jun-30 15:45 253 6 gusting 21 32.8
2016-Jun-30 15:40 224 9 gusting 21 32.8
2016-Jun-30 15:35 248 15 gusting 21 32.8
2016-Jun-30 15:30 278 9 gusting 21 32.8
2016-Jun-30 15:25 306 9 gusting 21 32.8
2016-Jun-30 15:20 296 10 gusting 14 32.8
2016-Jun-30 15:15 261 13 gusting 18 32.8
2016-Jun-30 15:10 242 10 gusting 19 32.8
2016-Jun-30 15:05 247 14 gusting 19 32.8
2016-Jun-30 15:00 256 14 gusting 19 32.8
2016-Jun-30 14:55 225 13 gusting 18 32.8
2016-Jun-30 14:50 217 6 gusting 19 32.8
2016-Jun-30 14:45 253 8 gusting 19 32.2
2016-Jun-30 14:40 286 7 gusting 19 32.2
2016-Jun-30 14:31 291 8 gusting 18 32.8
2016-Jun-30 14:25 249 4 gusting 18 32.8
2016-Jun-30 14:20 244 13 gusting 18 32.8
2016-Jun-30 14:15 248 11 gusting 16 32.8
2016-Jun-30 14:10 292 6 gusting 12 32.2
2016-Jun-30 14:05 309 6 gusting 12 32.8
2016-Jun-30 14:00 264 9 gusting 17 32.8
2016-Jun-30 13:55 238 9 gusting 18 32.2
2016-Jun-30 13:50 233 9 gusting 19 31.7
2016-Jun-30 13:45 238 13 gusting 19 32.2
2016-Jun-30 13:40 258 6 gusting 19 32.2
2016-Jun-30 13:35 287 4 gusting 19 31.7
2016-Jun-30 13:30 304 10 gusting 17 32.2
2016-Jun-30 13:25 299 6 gusting 19 31.7
2016-Jun-30 13:20 297 6 gusting 19 31.7
2016-Jun-30 13:15 283 16 gusting 19 31.7
2016-Jun-30 13:10 262 11 gusting 18 31.7
2016-Jun-30 13:05 240 3 gusting 17 32.2
2016-Jun-30 13:00 246 8 gusting 18 31.7
2016-Jun-30 12:55 237 13 gusting 18 31.7
2016-Jun-30 12:50 196 3 gusting 13 31.7
2016-Jun-30 12:45 245 6 gusting 18 31.7
2016-Jun-30 12:40 265 6 gusting 18 31.7
2016-Jun-30 12:35 256 9 gusting 18 31.7
2016-Jun-30 12:30 245 3 gusting 17 31.1
2016-Jun-30 12:25 251 11 gusting 17 31.1
2016-Jun-30 12:20 275 6 gusting 9 31.7
2016-Jun-30 12:15 288 3 gusting 13 31.1
2016-Jun-30 12:10 265 3 gusting 15 30.6
2016-Jun-30 12:05 257 8 gusting 15 30.6
2016-Jun-30 12:00 280 7 gusting 16 30.6
2016-Jun-30 11:55 264 13 gusting 16 31.1
2016-Jun-30 11:50 243 1 gusting 14 30.6
2016-Jun-30 11:45 271 9 gusting 15 30.6
2016-Jun-30 11:40 290 12 gusting 15 30.6
2016-Jun-30 11:35 260 12 gusting 15 30.6
2016-Jun-30 11:30 259 9 gusting 15 30.6
2016-Jun-30 11:25 272 4 gusting 13 30.0
2016-Jun-30 11:20 258 6 gusting 13 30.0
2016-Jun-30 11:15 246 6 gusting 13 30.6
2016-Jun-30 11:10 237 4 gusting 9 30.6
2016-Jun-30 11:05 212 1 gusting 14 30.0
2016-Jun-30 11:00 233 0 gusting 14 29.4
2016-Jun-30 10:55 238 9 gusting 14 30.0
2016-Jun-30 10:50 231 3 gusting 14 29.4
2016-Jun-30 10:45 248 12 gusting 14 30.0
2016-Jun-30 10:40 253 2 gusting 14 29.4
2016-Jun-30 10:35 253 9 gusting 14 29.4
2016-Jun-30 10:30 244 6 gusting 12 29.4
2016-Jun-30 10:25 177 5 gusting 9 30.0
2016-Jun-30 10:20 196 3 gusting 9 29.4
2016-Jun-30 10:15 206 6 gusting 13 28.9
2016-Jun-30 10:10 253 3 gusting 13 28.3
2016-Jun-30 10:05 289 10 gusting 13 28.9
2016-Jun-30 10:00 285 3 gusting 9 28.3
2016-Jun-30 09:55 264 3 gusting 12 28.3
2016-Jun-30 09:50 248 6 gusting 12 28.9
2016-Jun-30 09:45 188 4 gusting 6 30.6
2016-Jun-30 09:40 134 1 gusting 4 29.4
2016-Jun-30 09:35 155 2 gusting 4 29.4
2016-Jun-30 09:30 173 1 gusting 4 29.4
2016-Jun-30 09:25 133 2 gusting 6 28.9
2016-Jun-30 09:20 105 3 gusting 6 27.8
2016-Jun-30 09:15 122 5 gusting 6 28.3
2016-Jun-30 09:10 172 0 gusting 3 28.9
2016-Jun-30 09:05 120 0 gusting 4 28.3
2016-Jun-30 09:00 096 1 gusting 6 27.8
2016-Jun-30 08:55 108 1 gusting 6 27.8
2016-Jun-30 08:50 105 0 gusting 4 27.2
2016-Jun-30 08:45 091 2 gusting 6 26.7
2016-Jun-30 08:40 101 3 gusting 6 27.2
2016-Jun-30 08:35 124 1 gusting 3 27.2
2016-Jun-30 08:30 094 0 gusting 3 26.1
2016-Jun-30 08:25 045 2 gusting 6 25.0
2016-Jun-30 08:20 042 3 gusting 6 25.0
2016-Jun-30 08:15 070 5 gusting 6 25.6
2016-Jun-30 08:10 083 2 gusting 5 25.6
2016-Jun-30 08:05 085 3 gusting 6 25.0
2016-Jun-30 08:00 099 3 gusting 6 25.0
2016-Jun-30 07:55 079 3 gusting 6 25.6
2016-Jun-30 07:50 086 1 gusting 6 25.0
2016-Jun-30 07:45 091 2 gusting 6 24.4
2016-Jun-30 07:40 062 3 gusting 6 23.9
2016-Jun-30 07:35 045 4 gusting 6 23.3
2016-Jun-30 07:30 041 4 gusting 6 23.3
2016-Jun-30 07:25 049 3 gusting 5 23.3
2016-Jun-30 07:20 042 3 gusting 6 23.3
2016-Jun-30 07:15 038 3 gusting 6 22.8
2016-Jun-30 07:10 048 4 gusting 6 22.8
2016-Jun-30 07:05 046 3 gusting 6 23.3
2016-Jun-30 07:00 052 3 gusting 6 22.8
2016-Jun-30 06:55 070 3 gusting 6 22.8
2016-Jun-30 06:50 062 3 gusting 6 22.8
2016-Jun-30 06:45 047 4 gusting 6 22.2
2016-Jun-30 06:40 042 3 gusting 6 21.7
2016-Jun-30 06:35 041 5 gusting 7 22.2
2016-Jun-30 06:30 044 3 gusting 7 21.7
2016-Jun-30 06:25 048 6 gusting 7 22.2
2016-Jun-30 06:20 056 2 gusting 6 22.2
2016-Jun-30 06:15 047 2 gusting 6 22.2
2016-Jun-30 06:10 040 3 gusting 6 21.7
2016-Jun-30 06:05 048 3 gusting 6 21.7
2016-Jun-30 06:00 059 4 gusting 6 21.7
2016-Jun-30 05:55 053 2 gusting 6 21.7
2016-Jun-30 05:50 038 4 gusting 6 21.7
2016-Jun-30 05:45 045 3 gusting 6 21.1
2016-Jun-30 05:40 048 3 gusting 6 21.1
2016-Jun-30 05:35 045 1 gusting 6 21.1
2016-Jun-30 05:30 047 5 gusting 6 21.1
2016-Jun-30 05:25 046 1 gusting 6 21.1
2016-Jun-30 05:20 054 6 gusting 6 21.1
2016-Jun-30 05:15 054 4 gusting 6 20.6
2016-Jun-30 05:10 046 2 gusting 6 20.6
2016-Jun-30 05:05 051 3 gusting 4 20.6
2016-Jun-30 05:00 051 2 gusting 5 20.6
2016-Jun-30 04:55 057 3 gusting 6 20.6
2016-Jun-30 04:50 056 1 gusting 6 20.6
2016-Jun-30 04:45 060 3 gusting 6 21.1
2016-Jun-30 04:40 076 4 gusting 6 21.1
2016-Jun-30 04:35 060 4 gusting 6 21.1
2016-Jun-30 04:30 041 4 gusting 6 21.1
2016-Jun-30 04:25 027 5 gusting 6 21.1
2016-Jun-30 04:20 020 1 gusting 4 21.1
2016-Jun-30 04:15 044 1 gusting 6 21.7
2016-Jun-30 04:10 054 3 gusting 6 21.7
2016-Jun-30 04:05 053 3 gusting 6 21.7
2016-Jun-30 04:00 051 3 gusting 6 21.7
2016-Jun-30 03:55 049 3 gusting 6 21.7
2016-Jun-30 03:50 047 4 gusting 6 21.7
2016-Jun-30 03:45 050 3 gusting 6 22.2
2016-Jun-30 03:40 050 3 gusting 6 22.2
2016-Jun-30 03:35 063 2 gusting 4 22.2
2016-Jun-30 03:30 067 1 gusting 6 22.2
2016-Jun-30 03:25 061 2 gusting 6 22.2
2016-Jun-30 03:20 059 3 gusting 6 22.2
2016-Jun-30 03:15 049 3 gusting 6 22.2
2016-Jun-30 03:10 047 5 gusting 6 22.2
2016-Jun-30 03:05 057 3 gusting 6 22.2
2016-Jun-30 03:00 061 6 gusting 6 22.2
2016-Jun-30 02:55 051 3 gusting 7 22.2
2016-Jun-30 02:50 048 3 gusting 7 22.2
2016-Jun-30 02:45 048 3 gusting 7 22.8
2016-Jun-30 02:40 041 4 gusting 9 22.8
2016-Jun-30 02:35 057 5 gusting 9 22.8
2016-Jun-30 02:30 065 3 gusting 8 22.8
2016-Jun-30 02:25 061 6 gusting 10 22.8
2016-Jun-30 02:20 073 6 gusting 10 22.8
2016-Jun-30 02:15 073 7 gusting 10 23.3
2016-Jun-30 02:10 067 5 gusting 6 23.3
2016-Jun-30 02:05 065 4 gusting 7 23.3
2016-Jun-30 02:00 062 4 gusting 10 23.3
2016-Jun-30 01:55 060 6 gusting 10 23.3
2016-Jun-30 01:50 069 6 gusting 7 23.9
2016-Jun-30 01:45 060 6 gusting 7 23.9
2016-Jun-30 01:40 054 5 gusting 7 23.9
2016-Jun-30 01:35 072 5 gusting 7 23.9
2016-Jun-30 01:30 077 3 gusting 7 23.9
2016-Jun-30 01:25 077 3 gusting 8 23.9
2016-Jun-30 01:20 068 6 gusting 8 24.4
2016-Jun-30 01:15 047 2 gusting 4 24.4
2016-Jun-30 01:10 047 3 gusting 4 24.4
2016-Jun-30 01:05 073 1 gusting 4 24.4
2016-Jun-30 01:00 086 2 gusting 5 24.4
2016-Jun-30 00:55 090 1 gusting 5 24.4
2016-Jun-30 00:50 095 3 gusting 4 24.4
2016-Jun-30 00:45 094 2 gusting 3 24.4
2016-Jun-30 00:40 090 0 gusting 1 24.4
2016-Jun-30 00:35 24.4
2016-Jun-30 00:30 100 1 gusting 3 24.4
2016-Jun-30 00:25 093 0 gusting 3 24.4
2016-Jun-30 00:20 065 0 gusting 3 25.0
2016-Jun-30 00:15 011 2 gusting 3 25.0
2016-Jun-30 00:10 325 1 gusting 2 25.0
2016-Jun-30 00:05 282 1 gusting 2 25.6
2016-Jun-30 00:00 318 1 gusting 2 25.6
2016-Jun-29 23:55 25.6
2016-Jun-29 23:50 056 1 gusting 2 25.6
2016-Jun-29 23:45 086 1 gusting 1 25.6
2016-Jun-29 23:40 25.6
2016-Jun-29 23:35 25.6
2016-Jun-29 23:30 25.6
2016-Jun-29 23:25 25.6
2016-Jun-29 23:20 25.6
2016-Jun-29 23:15 162 0 gusting 1 25.6
2016-Jun-29 23:10 164 0 gusting 1 26.1
2016-Jun-29 23:05 179 0 gusting 1 26.1
2016-Jun-29 23:00 26.7
2016-Jun-29 22:55 130 0 gusting 2 26.7
2016-Jun-29 22:50 128 0 gusting 2 26.7
2016-Jun-29 22:45 128 0 gusting 1 26.7
2016-Jun-29 22:40 130 1 gusting 1 27.2
2016-Jun-29 22:35 27.2
2016-Jun-29 22:30 27.8
2016-Jun-29 22:25 158 1 gusting 2 27.8
2016-Jun-29 22:20 173 0 gusting 1 27.8
2016-Jun-29 22:15 28.3
2016-Jun-29 22:10 28.9
2016-Jun-29 22:05 29.4
2016-Jun-29 22:00 29.4
2016-Jun-29 21:55 041 2 gusting 6 29.4
2016-Jun-29 21:50 049 3 gusting 7 29.4
2016-Jun-29 21:45 050 5 gusting 7 29.4
2016-Jun-29 21:40 039 3 gusting 6 29.4
2016-Jun-29 21:35 024 5 gusting 8 29.4
2016-Jun-29 21:30 004 5 gusting 8 30.0
2016-Jun-29 21:25 356 3 gusting 6 30.0
2016-Jun-29 21:20 359 3 gusting 6 30.0
2016-Jun-29 21:15 323 2 gusting 4 30.0
2016-Jun-29 21:10 301 1 gusting 6 30.0
2016-Jun-29 21:05 280 2 gusting 6 30.6
2016-Jun-29 21:00 284 3 gusting 9 30.6
2016-Jun-29 20:55 283 2 gusting 9 30.6
2016-Jun-29 20:50 282 6 gusting 10 30.6
2016-Jun-29 20:45 298 4 gusting 13 30.6
2016-Jun-29 20:40 297 6 gusting 13 31.1
2016-Jun-29 20:35 277 6 gusting 10 31.1
2016-Jun-29 20:30 269 3 gusting 6 31.1
2016-Jun-29 20:25 294 3 gusting 7 31.1
2016-Jun-29 20:20 302 3 gusting 7 31.1
2016-Jun-29 20:15 280 3 gusting 9 31.7
2016-Jun-29 20:10 245 6 gusting 9 31.7
2016-Jun-29 20:05 263 6 gusting 13 31.7
2016-Jun-29 20:00 304 6 gusting 16 31.7
2016-Jun-29 19:55 295 5 gusting 16 31.7
2016-Jun-29 19:50 294 6 gusting 13 31.7
2016-Jun-29 19:45 297 6 gusting 18 32.2
2016-Jun-29 19:40 291 8 gusting 18 32.2
2016-Jun-29 19:35 296 11 gusting 18 32.2
2016-Jun-29 19:30 286 13 gusting 19 32.2
2016-Jun-29 19:25 277 13 gusting 20 32.2
2016-Jun-29 19:20 292 11 gusting 20 32.2
2016-Jun-29 19:15 288 15 gusting 20 32.2
2016-Jun-29 19:10 280 11 gusting 21 32.2
2016-Jun-29 19:05 297 15 gusting 21 32.8
2016-Jun-29 19:00 296 15 gusting 20 32.8
2016-Jun-29 18:55 275 7 gusting 21 32.8
2016-Jun-29 18:50 274 8 gusting 21 32.8
2016-Jun-29 18:45 276 9 gusting 19 33.3
2016-Jun-29 18:40 279 8 gusting 19 33.3
2016-Jun-29 18:35 269 13 gusting 20 33.3
2016-Jun-29 18:30 264 12 gusting 20 33.3
2016-Jun-29 18:25 282 10 gusting 19 33.3
2016-Jun-29 18:20 286 14 gusting 19 33.9
2016-Jun-29 18:15 276 6 gusting 19 33.3
2016-Jun-29 18:10 293 14 gusting 20 33.9
2016-Jun-29 18:05 263 13 gusting 21 33.9
2016-Jun-29 17:55 292 8 gusting 19 33.9
2016-Jun-29 17:50 300 14 gusting 23 33.9
2016-Jun-29 17:45 284 13 gusting 23 34.4
2016-Jun-29 17:40 281 13 gusting 21 33.9
2016-Jun-29 17:35 291 11 gusting 28 33.9
2016-Jun-29 17:30 287 15 gusting 28 33.9
2016-Jun-29 17:25 294 13 gusting 19 34.4
2016-Jun-29 17:20 298 9 gusting 26 33.9
2016-Jun-29 17:15 291 14 gusting 26 34.4
2016-Jun-29 17:10 292 21 gusting 26 34.4
2016-Jun-29 17:05 303 7 gusting 17 34.4
2016-Jun-29 17:00 304 7 gusting 17 34.4
2016-Jun-29 16:55 307 6 gusting 16 35.0
2016-Jun-29 16:50 297 6 gusting 19 34.4
2016-Jun-29 16:45 287 3 gusting 20 34.4
2016-Jun-29 16:40 292 14 gusting 20 33.9
2016-Jun-29 16:35 290 13 gusting 20 34.4
2016-Jun-29 16:30 301 6 gusting 19 33.9
2016-Jun-29 16:25 307 13 gusting 20 33.9
2016-Jun-29 16:20 314 16 gusting 23 34.4
2016-Jun-29 16:15 308 10 gusting 23 34.4
2016-Jun-29 16:10 285 6 gusting 13 34.4
2016-Jun-29 16:05 281 5 gusting 18 34.4
2016-Jun-29 16:00 303 9 gusting 18 34.4
2016-Jun-29 15:55 324 6 gusting 15 34.4
2016-Jun-29 15:50 319 6 gusting 14 34.4
2016-Jun-29 15:45 316 6 gusting 14 34.4
2016-Jun-29 15:40 334 9 gusting 19 34.4
2016-Jun-29 15:35 329 7 gusting 19 34.4
2016-Jun-29 15:30 308 9 gusting 17 34.4
2016-Jun-29 15:25 297 6 gusting 14 34.4
2016-Jun-29 15:20 311 9 gusting 14 34.4
2016-Jun-29 15:15 304 1 gusting 14 33.9
2016-Jun-29 15:10 266 4 gusting 17 33.9
2016-Jun-29 15:05 268 9 gusting 19 33.9
2016-Jun-29 15:00 292 6 gusting 19 33.9
2016-Jun-29 14:55 289 12 gusting 17 33.9
2016-Jun-29 14:50 278 8 gusting 13 33.9
2016-Jun-29 14:45 285 6 gusting 22 34.4
2016-Jun-29 14:40 301 6 gusting 22 33.9
2016-Jun-29 14:35 293 17 gusting 21 34.4
2016-Jun-29 14:30 286 14 gusting 19 34.4
2016-Jun-29 14:25 301 5 gusting 9 34.4
2016-Jun-29 14:20 302 3 gusting 9 34.4
2016-Jun-29 14:15 309 6 gusting 9 34.4
2016-Jun-29 14:10 289 2 gusting 13 34.4
2016-Jun-29 14:05 281 2 gusting 13 34.4
2016-Jun-29 14:00 277 9 gusting 13 34.4
2016-Jun-29 13:55 247 8 gusting 12 34.4
2016-Jun-29 13:50 245 7 gusting 18 33.9
2016-Jun-29 13:45 259 6 gusting 18 33.3
2016-Jun-29 13:40 266 9 gusting 16 33.3
2016-Jun-29 13:35 274 13 gusting 16 33.3
2016-Jun-29 13:30 288 6 gusting 14 32.8
2016-Jun-29 13:25 270 5 gusting 14 32.8
2016-Jun-29 13:20 264 6 gusting 13 32.8
2016-Jun-29 13:15 264 11 gusting 14 32.8
2016-Jun-29 13:10 255 6 gusting 15 32.2
2016-Jun-29 13:05 247 10 gusting 15 32.8
2016-Jun-29 13:00 250 6 gusting 14 32.8